When you browse on this site, cookies collect data to enhance your experience and personalize the content and advertising you see.
Visit our Privacy Policy to learn more. By continuing to use the site, you agree to this use of cookies and data.

Hourly Weather Pasynki

Today, 24 September, Thursday

Time Temperature Precipitation Wind Pressure Humidity
00:00 +15°C° 0 mm 1 mps 746 mmHg 67%
01:00 +15°C° 0 mm 1 mps 746 mmHg 68%
02:00 +14°C° 0 mm 1 mps 746 mmHg 68%
03:00 +14°C° 0 mm 1 mps 747 mmHg 70%
04:00 +13°C° 0 mm 1 mps 747 mmHg 71%
05:00 +13°C° 0 mm 1 mps 747 mmHg 72%
06:00 +13°C° 0 mm 1 mps 747 mmHg 73%
07:00 +14°C° 0 mm 1 mps 747 mmHg 69%
08:00 +16°C° 0 mm 1 mps 747 mmHg 65%
09:00 +18°C° 0 mm 1 mps 747 mmHg 58%
10:00 +19°C° 0 mm 2 mps 747 mmHg 54%
11:00 +20°C° 0 mm 2 mps 747 mmHg 49%
12:00 +23°C° 0 mm 2 mps 747 mmHg 45%
13:00 +23°C° 0 mm 2 mps 747 mmHg 43%
14:00 +24°C° 0 mm 3 mps 747 mmHg 41%
15:00 +25°C° 0 mm 2 mps 747 mmHg 37%
16:00 +23°C° 0 mm 2 mps 747 mmHg 41%
17:00 +21°C° 0 mm 2 mps 746 mmHg 46%
18:00 +19°C° 0 mm 2 mps 746 mmHg 50%
19:00 +18°C° 0 mm 2 mps 746 mmHg 52%
20:00 +17°C° 0 mm 2 mps 746 mmHg 53%
21:00 +17°C° 0 mm 2 mps 747 mmHg 55%
22:00 +16°C° 0 mm 2 mps 747 mmHg 56%
23:00 +16°C° 0 mm 2 mps 747 mmHg 56%

Tomorrow, 25 September, Friday

Time Temperature Precipitation Wind Pressure Humidity
00:00 +15°C° 0 mm 2 mps 746 mmHg 57%
01:00 +15°C° 0 mm 2 mps 746 mmHg 57%
02:00 +13°C° 0 mm 3 mps 746 mmHg 57%
03:00 +13°C° 0 mm 3 mps 746 mmHg 58%
04:00 +13°C° 0 mm 3 mps 746 mmHg 57%
05:00 +12°C° 0 mm 3 mps 746 mmHg 57%
06:00 +12°C° 0 mm 3 mps 746 mmHg 57%
07:00 +13°C° 0 mm 3 mps 746 mmHg 55%
08:00 +14°C° 0 mm 3 mps 746 mmHg 52%
09:00 +17°C° 0 mm 4 mps 747 mmHg 50%
10:00 +18°C° 0 mm 4 mps 747 mmHg 47%
11:00 +20°C° 0 mm 4 mps 747 mmHg 44%
12:00 +21°C° 0 mm 4 mps 747 mmHg 41%
13:00 +22°C° 0 mm 4 mps 747 mmHg 38%
14:00 +23°C° 0 mm 4 mps 747 mmHg 36%
15:00 +25°C° 0 mm 4 mps 747 mmHg 34%
16:00 +22°C° 0 mm 4 mps 746 mmHg 39%
17:00 +21°C° 0 mm 4 mps 746 mmHg 44%
18:00 +19°C° 0 mm 3 mps 746 mmHg 50%
19:00 +18°C° 0 mm 4 mps 746 mmHg 51%
20:00 +18°C° 0 mm 4 mps 746 mmHg 53%
21:00 +17°C° 0 mm 4 mps 746 mmHg 55%
22:00 +15°C° 0 mm 4 mps 746 mmHg 57%
23:00 +15°C° 0 mm 4 mps 746 mmHg 59%

Day after tomorrow, 26 September, Saturday

Time Temperature Precipitation Wind Pressure Humidity
00:00 +14°C° 0 mm 4 mps 746 mmHg 60%
01:00 +14°C° 0 mm 4 mps 746 mmHg 61%
02:00 +14°C° 0 mm 4 mps 746 mmHg 62%
03:00 +13°C° 0 mm 4 mps 746 mmHg 63%
04:00 +13°C° 0 mm 4 mps 746 mmHg 64%
05:00 +12°C° 0 mm 4 mps 746 mmHg 65%
06:00 +12°C° 0 mm 4 mps 746 mmHg 67%
07:00 +13°C° 0 mm 4 mps 746 mmHg 63%
08:00 +14°C° 0 mm 5 mps 746 mmHg 59%
09:00 +15°C° 0 mm 5 mps 746 mmHg 55%
10:00 +17°C° 0 mm 5 mps 747 mmHg 50%
11:00 +19°C° 0 mm 6 mps 747 mmHg 46%
12:00 +21°C° 0 mm 6 mps 747 mmHg 42%
13:00 +22°C° 0 mm 6 mps 747 mmHg 41%
14:00 +22°C° 0 mm 6 mps 747 mmHg 39%
15:00 +23°C° 0 mm 6 mps 746 mmHg 38%
16:00 +22°C° 0 mm 5 mps 746 mmHg 41%
17:00 +21°C° 0 mm 5 mps 746 mmHg 45%
18:00 +20°C° 0 mm 4 mps 746 mmHg 48%
19:00 +19°C° 0 mm 4 mps 746 mmHg 49%
20:00 +17°C° 0 mm 5 mps 746 mmHg 50%
21:00 +17°C° 0 mm 5 mps 746 mmHg 51%
22:00 +16°C° 0 mm 5 mps 746 mmHg 51%
23:00 +16°C° 0 mm 5 mps 747 mmHg 50%

27 September, Sunday

Time Temperature Precipitation Wind Pressure Humidity
00:00 +16°C° 0 mm 5 mps 747 mmHg 49%
01:00 +16°C° 0 mm 5 mps 747 mmHg 48%
02:00 +15°C° 0 mm 5 mps 747 mmHg 47%
03:00 +15°C° 0 mm 5 mps 747 mmHg 45%
04:00 +15°C° 0 mm 5 mps 747 mmHg 44%
05:00 +14°C° 0 mm 6 mps 747 mmHg 42%
06:00 +14°C° 0 mm 6 mps 748 mmHg 41%
07:00 +14°C° 0 mm 6 mps 748 mmHg 41%
08:00 +14°C° 0 mm 7 mps 748 mmHg 41%
09:00 +15°C° 0 mm 7 mps 748 mmHg 41%
10:00 +16°C° 0 mm 8 mps 748 mmHg 39%
11:00 +17°C° 0 mm 8 mps 748 mmHg 37%
12:00 +18°C° 0 mm 8 mps 748 mmHg 34%
13:00 +20°C° 0 mm 8 mps 748 mmHg 35%
14:00 +20°C° 0 mm 8 mps 748 mmHg 35%
15:00 +21°C° 0 mm 8 mps 747 mmHg 35%
16:00 +20°C° 0 mm 7 mps 747 mmHg 36%
17:00 +18°C° 0 mm 7 mps 747 mmHg 37%
18:00 +19°C° 0 mm 6 mps 747 mmHg 38%
19:00 +19°C° 0 mm 6 mps 747 mmHg 37%
20:00 +19°C° 0 mm 6 mps 747 mmHg 37%
21:00 +17°C° 0 mm 7 mps 748 mmHg 36%
22:00 +17°C° 0 mm 6 mps 748 mmHg 37%
23:00 +17°C° 0 mm 6 mps 748 mmHg 37%

28 September, Monday

Time Temperature Precipitation Wind Pressure Humidity
00:00 +17°C° 0 mm 5 mps 748 mmHg 38%
01:00 +16°C° 0.3 mm 5 mps 748 mmHg 42%
02:00 +15°C° 0.3 mm 5 mps 748 mmHg 46%
03:00 +14°C° 0.3 mm 5 mps 748 mmHg 50%
04:00 +14°C° 0.4 mm 6 mps 748 mmHg 54%
05:00 +13°C° 0.4 mm 6 mps 748 mmHg 58%
06:00 +13°C° 0.4 mm 6 mps 748 mmHg 61%
07:00 +13°C° 0.6 mm 6 mps 748 mmHg 67%
08:00 +11°C° 0.6 mm 7 mps 748 mmHg 72%
09:00 +11°C° 0.6 mm 7 mps 749 mmHg 77%
10:00 +11°C° 1 mm 7 mps 749 mmHg 79%
11:00 +11°C° 1 mm 7 mps 749 mmHg 82%
12:00 +11°C° 1 mm 7 mps 749 mmHg 84%
13:00 +11°C° 0 mm 7 mps 749 mmHg 83%
14:00 +11°C° 0 mm 7 mps 749 mmHg 81%
15:00 +12°C° 0 mm 7 mps 749 mmHg 80%
16:00 +13°C° 0 mm 6 mps 749 mmHg 76%
17:00 +12°C° 0 mm 5 mps 749 mmHg 72%
18:00 +12°C° 0 mm 4 mps 749 mmHg 68%
19:00 +12°C° 0 mm 4 mps 749 mmHg 65%
20:00 +13°C° 0 mm 4 mps 749 mmHg 62%
21:00 +13°C° 0 mm 4 mps 749 mmHg 59%
22:00 +13°C° 0 mm 4 mps 749 mmHg 59%
23:00 +12°C° 0 mm 4 mps 749 mmHg 59%

29 September, Tuesday

Time Temperature Precipitation Wind Pressure Humidity
00:00 +12°C° 0 mm 4 mps 749 mmHg 59%
01:00 +12°C° 0 mm 4 mps 749 mmHg 59%
02:00 +12°C° 0 mm 4 mps 749 mmHg 59%
03:00 +12°C° 0 mm 4 mps 748 mmHg 59%
04:00 +12°C° 0 mm 4 mps 748 mmHg 61%
05:00 +12°C° 0 mm 5 mps 748 mmHg 63%
06:00 +12°C° 0 mm 5 mps 748 mmHg 64%
07:00 +13°C° 0 mm 6 mps 748 mmHg 63%
08:00 +13°C° 0 mm 6 mps 748 mmHg 62%
09:00 +14°C° 0 mm 7 mps 748 mmHg 61%
10:00 +15°C° 0 mm 7 mps 748 mmHg 57%
11:00 +15°C° 0 mm 7 mps 748 mmHg 53%
12:00 +16°C° 0 mm 7 mps 748 mmHg 49%
13:00 +16°C° 0 mm 7 mps 748 mmHg 49%
14:00 +16°C° 0 mm 7 mps 748 mmHg 49%
15:00 +16°C° 0 mm 7 mps 747 mmHg 49%
16:00 +15°C° 0 mm 7 mps 747 mmHg 48%
17:00 +15°C° 0 mm 6 mps 747 mmHg 47%
18:00 +15°C° 0 mm 6 mps 747 mmHg 46%
19:00 +15°C° 0 mm 6 mps 747 mmHg 43%
20:00 +15°C° 0 mm 6 mps 746 mmHg 41%
21:00 +15°C° 0 mm 7 mps 746 mmHg 38%
22:00 +15°C° 0 mm 6 mps 746 mmHg 37%
23:00 +14°C° 0 mm 6 mps 746 mmHg 37%
Show more